Flag for Poland Weather past 2 weeks in Wroclaw, Poland

Now
30 °F

Clear.


Feels Like: 23 °F
Forecast: 31 / 37 °F
Wind: 7 mph from Southeast

Location: Wroclaw Ii

Current Time: Jan 26, 2015 at 9:40:25 PM

Latest Report: Jan 26, 2015 at 9:00 PM


Visibility: 10 mi

Pressure: 30.01 "Hg

Humidity: 80%

Dew point: 25 °F

Location of WroclawLocation

Historic Weather in Wroclaw — Graph

°F

Wroclaw temperature yesterday

Maximum temperature yesterday: 36 °F (at 1:00 PM)
Minimum temperature yesterday: 30 °F (at 12:00 AM)
Average temperature yesterday: 33 °F

Past Weeks' High & Low Weather Summary

 TemperatureHumidityPressure
High54 °F (Jan 13, 2:30 PM)93% (Jan 12, 7:00 AM)30.27 "Hg (Jan 12, 7:00 AM)
Low28 °F (Jan 24, 3:00 AM)38% (Jan 13, 10:30 PM)29.65 "Hg (Jan 17, 3:00 AM)
Average38 °F80%29.99 "Hg
* Reported Jan 11 8:00 PM — Jan 26 8:30 PM, Wroclaw, Weather by CustomWeather, © 2014

Note: Actual official high and low records may vary slightly from our data, if they occured in-between our weather recording intervals... More about our weather records

Advertising

Wroclaw weather history for previous 24 hours

 ConditionsComfort  
Time TempWeatherWind HumidityBarometerVisibility
8:30 PM
Jan 26
30 °FClear.7 mph80%30.04 "Hg10 mi
8:00 PM30 °FClear.8 mph86%30.04 "Hg10 mi
7:00 PM32 °FClear.6 mph80%30.07 "Hg10 mi
6:00 PM32 °FClear.6 mph75%30.09 "Hg10 mi
5:30 PM34 °FClear.5 mph70%30.09 "Hg10 mi
5:00 PM34 °FClear.6 mph70%30.12 "Hg10 mi
4:30 PM36 °FSunny.6 mph65%30.12 "Hg10 mi
4:00 PM36 °FSunny.7 mph65%30.12 "Hg10 mi
3:30 PM37 °FPassing clouds.6 mph56%30.15 "HgN/A
3:00 PM37 °FPassing clouds.7 mph60%30.15 "HgN/A
2:30 PM37 °FPassing clouds.6 mph56%30.18 "HgN/A
2:00 PM37 °FPassing clouds.6 mph56%30.18 "HgN/A
1:30 PM37 °FScattered clouds.5 mph56%30.21 "HgN/A
1:00 PM37 °FPartly sunny.6 mph56%30.21 "HgN/A
12:30 PM36 °FPartly sunny.5 mph65%30.21 "HgN/A
12:00 PM36 °FPartly sunny.3 mph81%30.24 "HgN/A
11:30 AM36 °FPartly sunny.3 mph81%30.24 "HgN/A
11:00 AM36 °FPartly sunny.3 mph81%30.24 "HgN/A
10:30 AM34 °FPartly sunny.3 mph87%30.27 "HgN/A
10:00 AM34 °FPartly sunny.3 mph87%30.27 "HgN/A
9:30 AM34 °FPartly sunny.2 mph87%30.27 "HgN/A
9:00 AM34 °FPartly sunny.2 mph87%30.27 "HgN/A
8:30 AM32 °FPartly sunny.2 mph93%30.27 "HgN/A
8:00 AM32 °FPartly sunny.1 mph93%30.27 "HgN/A
7:30 AM32 °FPassing clouds.1 mph93%30.27 "HgN/A
7:00 AM32 °FLight snow. Passing clouds.1 mph93%30.27 "HgN/A
6:30 AM32 °FLight snow. Passing clouds.2 mph93%30.27 "HgN/A
6:00 AM32 °FPassing clouds.1 mph93%30.27 "HgN/A
5:30 AM32 °FPassing clouds.1 mph93%30.27 "HgN/A
5:00 AM32 °FPassing clouds.2 mph93%30.27 "HgN/A
4:30 AM34 °FPassing clouds.3 mph87%30.27 "HgN/A
4:00 AM34 °FPassing clouds.5 mph87%30.27 "HgN/A
3:30 AM34 °FPassing clouds.5 mph87%30.27 "HgN/A
3:00 AM34 °FPassing clouds.8 mph87%30.27 "HgN/A
2:30 AM34 °FPassing clouds.6 mph87%30.27 "HgN/A
2:00 AM34 °FPassing clouds.8 mph87%30.27 "HgN/A
1:30 AM34 °FPassing clouds.8 mph87%30.27 "HgN/A
1:00 AM34 °FPassing clouds.8 mph87%30.27 "HgN/A
12:30 AM34 °FPassing clouds.7 mph87%30.27 "HgN/A
12:00 AM34 °FPassing clouds.7 mph87%30.27 "HgN/A
11:30 PM
Jan 25
34 °FPassing clouds.7 mph87%30.27 "HgN/A
11:00 PM34 °FPassing clouds.7 mph87%30.27 "HgN/A
10:30 PM34 °FPartly cloudy.7 mph87%30.27 "HgN/A
10:00 PM34 °FPassing clouds.8 mph87%30.27 "HgN/A
9:30 PM34 °FPartly cloudy.9 mph87%30.27 "HgN/A
9:00 PM34 °FPartly cloudy.9 mph87%30.27 "HgN/A
Weather by CustomWeather, © 2014

See weather overviewHow to use our weather pages